Terminal Aerodrome Forecast
Issued by NWS

Home | Current Version | Previous Version | Graphics & Text | Print | Product List | Glossary On
Versions: 1 2 3 4 5 6 7 8 9 10 11 12 13 14 15 16 17 18 19 20 21 22 23 24 25 26
000
FTUS42 KMHX 290150 AAA
TAFISO
TAF AMD
KISO 290150Z 2902/2924 20009KT P6SM VCTS SCT040CB BKN120
      TEMPO 2902/2905 VRB15G25KT 3SM TSRA OVC025CB
     FM290500 VRB03KT P6SM BKN030
     FM290800 00000KT 4SM BR BKN007
     FM291300 01004KT P6SM BKN015
     FM291600 01006KT P6SM SCT030
      AMD LTD TO CLD VIS AND WIND=

USA.gov is the U.S. government's official web portal to all federal, state and local government web resources and services.